User: anonymous   Login
Location: Whitehorse
(60.7170°N, 135.0500°W)
Time: 13:42:41
(UTC-08:00)
Language:

Cosmos 2219 Rocket - Orbit

View from above orbital plane
View from above orbital plane
View from above satellite
View from above satellite

Ground track
Ground track

The orbit data is extracted from the following two-line orbital elements,

1 22220U 92076B   17350.60955337 +.00000193 +00000-0 +12084-3 0  9997
2 22220 071.0009 035.2580 0013331 344.6068 126.0918 14.16425787296270
Epoch (UTC): 16 December 2017 14:37:45
Eccentricity: 0.0013331
inclination: 71.0009°
perigee height: 828 km
apogee height: 847 km
right ascension of ascending node: 35.2580°
argument of perigee: 344.6068°
revolutions per day: 14.16425787
mean anomaly at epoch: 126.0918°
orbit number at epoch: 29627

The dashed part of the orbit path shows where the satellite is in the earth's shadow,  

DLR